This is the latest recevied weather packets stored in our database for station/object N5XJB. If no packets are shown the sender has not sent any weather packets the latest 10 day(s).
| Time | Temp. | Humidity | Pressure | Rain* | Wind** | Luminosity | Snow |
|---|---|---|---|---|---|---|---|
| 1777842109 | 28.89° C | 33% | 1020.3 hPa | 0 mm | - | 672 W/m² | - |
| 1777841804 | 28.89° C | 31% | 1020.3 hPa | 0 mm | - | 689 W/m² | - |
| 1777841501 | 28.89° C | 34% | 1020.3 hPa | 0 mm | - | 709 W/m² | - |
| 1777841198 | 28.89° C | 32% | 1020.3 hPa | 0 mm | - | 712 W/m² | - |
| 1777840895 | 28.89° C | 33% | 1020.6 hPa | 0 mm | - | 710 W/m² | - |
| 1777840592 | 28.33° C | 36% | 1020.6 hPa | 0 mm | - | 728 W/m² | - |
| 1777840290 | 28.89° C | 33% | 1020.6 hPa | 0 mm | - | 745 W/m² | - |
| 1777839987 | 28.89° C | 34% | 1021 hPa | 0 mm | - | 761 W/m² | - |
| 1777839685 | 29.44° C | 32% | 1021 hPa | 0 mm | - | 776 W/m² | - |
| 1777839383 | 28.33° C | 37% | 1021 hPa | 0 mm | - | 786 W/m² | - |
| 1777839080 | 28.89° C | 35% | 1021.3 hPa | 0 mm | - | 795 W/m² | - |
| 1777838776 | 28.33° C | 36% | 1021.3 hPa | 0 mm | - | 799 W/m² | - |
| 1777838472 | 28.89° C | 33% | 1021.3 hPa | 0 mm | - | 834 W/m² | - |
| 1777838170 | 28.33° C | 34% | 1021.3 hPa | 0 mm | - | 840 W/m² | - |
| 1777837866 | 28.33° C | 31% | 1021.3 hPa | 0 mm | - | 859 W/m² | - |
| 1777837563 | 29.44° C | 34% | 1021.6 hPa | 0 mm | - | 854 W/m² | - |
| 1777837258 | 28.89° C | 35% | 1021.6 hPa | 0 mm | - | 855 W/m² | - |
| 1777836955 | 28.89° C | 36% | 1021.6 hPa | 0 mm | - | 865 W/m² | - |
| 1777836650 | 28.33° C | 35% | 1022 hPa | 0 mm | - | 871 W/m² | - |
| 1777836347 | 29.44° C | 35% | 1022 hPa | 0 mm | - | 904 W/m² | - |
| 1777836043 | 28.89° C | 35% | 1022 hPa | 0 mm | - | 896 W/m² | - |
| 1777835740 | 28.33° C | 34% | 1022 hPa | 0 mm | - | 890 W/m² | - |
| 1777835437 | 28.33° C | 35% | 1022 hPa | 0 mm | - | 879 W/m² | - |
| 1777835134 | 27.78° C | 37% | 1022.3 hPa | 0 mm | - | 884 W/m² | - |
| 1777834831 | 28.33° C | 35% | 1022 hPa | 0 mm | - | 892 W/m² | - |
* Rain latest hour (hover to see other rain measurements)
** Current wind speed in m/s (hover to see current wind gust speed)